Retour au catalogue

NORSAT 1

ActifScienceSSO
NORAD 42826·PAYLOAD·🇳🇴 Norway

Lancé Jul 14, 2017 depuis Baikonur Cosmodrome

Loading…

Prochains Passages (prochaines 24 heures)

TLE

FraisSource: Space-Track

Époque: Sep 14, 2026, 09:33 UTC

1 42826U 17042B   26257.39844331  .00005364  00000-0  29056-3 0  9996
2 42826  97.4534  63.2345 0008012 127.0585 233.1381 15.15002604500738

Suivez NORSAT 1 en temps réel avec AllMySat

Download on the App Store